Hauptseite
METAR-TAF:

METAR-TAF

Flughäfen :

Bozen, Italien

Breite: 46-28N, Länge: 011-20E, Höhe: 262 m

Beobachtung

Neuester Wetterbericht von vor 4 Stunden und 8 Minuten, um 21:50 UTC
Windstille
Temperatur -7°C
Luftfeuchtigkeit 93%
Luftdruck 1019 hPa
Sichtweite 10 km oder mehr
keine Wolken unter 1500 m und keine Kumulonimbus oder Gewitterwolken

METAR: LIPB 152150Z 00000KT CAVOK M07/M08 Q1019

Zeit: 02:58 (01:58 UTC)

Prognose

Neuester Wetterbericht von vor 8 Stunden und 58 Minuten, um 17:00 UTC
Gültige Prognose vom 15 um 18 UTC bis 16 um 18 UTC
Wind 5 kt aus unterschiedlichen Richtungen
Sichtweite 10 km oder mehr
keine Wolken unter 1500 m und keine Kumulonimbus oder Gewitterwolken

TAF: LIPB 151700Z 1518/1618 VRB05KT CAVOK

Wetterbeobachtungen und Prognosen von mehr als 4000 Flughäfen (METAR und TAF Bericht).

Die verfügbaren Stationen werden durch gelbe und rote Markierungen auf der Karte dargestellt.

Führen Sie die Maus auf sie, um den Namen der Station zu sehen.

Darauf klicken, um die Beobachtung von Wetterbeobachtungen und Prognosen zu sehen.

Um die Karte zu ändern : klicken Sie auf den grünen Tasten mit einem schwarzen Kreuz Zum Vergrößern, auf den grünen Button mit einem Gedankenstrich zu verkleinern, oder auf die grünen Pfeile für benachbarte Karten.


METAR-TAF: